Dewpoint
62 61 61 61 60 61 61 60 59 57 60 63 61 62 60 61 61 57 57 64 66 65 65 65 65 67 66 66 66 67 67 67 66 67 67 66 66 67 67 66 66 66 66 66 65 66 66 66 65 65 65 66 66 65 65 65 66 65 64 64 64 63 63 62 61 61 61 60 59 59 58 58 59 58 58 57 57 57 57 57 57 57 57 57 57
65 64 60 62 60 63 60 60 59 59 60 58 62 58 58 59 57 53 53 54 58 65 65 64 65 66 67 65 66 66 66 65 66 66 67 66 66 66 66 66 66 66 65 66 66 66 65 65 65 66 66 66 66 66 66 65 64 63 62 62 61 61 61 60 60 59 59 59 58 57 57 57 56 56 56 56 56 56 56 56 56 56 55 55 55
65 64 63 61 62 62 61 62 62 60 62 56 58 59 57 55 56 58 56 55 57 54 56 61 62 67 67 65 65 65 64 64 66 66 66 65 65 65 66 66 66 66 65 65 66 65 65 66 66 65 65 65 65 65 64 63 63 63 62 61 61 61 61 60 59 58 57 57 57 56 56 56 55 55 56 55 54 54 54 54 54 54 54 55 55
66 63 62 62 60 60 62 62 59 63 59 59 58 58 56 52 54 54 60 59 58 58 60 61 63 62 66 66 65 65 67 65 65 65 65 65 65 65 65 65 66 66 65 65 65 65 65 66 65 65 65 64 64 64 63 63 62 62 61 60 60 60 60 59 59 58 56 55 56 55 55 55 54 54 54 54 53 53 54 53 53 53 53 53 53
66 65 63 61 61 61 61 61 62 60 60 59 58 59 58 57 56 53 54 55 57 58 53 63 63 63 66 65 67 66 64 64 65 65 65 65 64 64 64 64 64 65 65 65 65 65 65 65 65 64 65 64 64 64 63 63 62 61 60 60 59 60 59 58 58 58 56 55 55 55 54 54 53 53 53 53 52 53 52 52 53 52 52 52 52
63 64 65 63 62 61 60 59 63 61 61 63 60 60 59 57 55 53 56 55 53 54 63 61 60 63 65 66 65 64 63 62 64 65 65 64 64 63 65 64 64 63 64 64 64 64 64 64 64 64 63 64 63 63 63 63 61 61 60 60 59 57 56 56 56 56 55 55 53 53 53 53 52 52 52 52 51 52 52 52 52 52 51 51 51
63 63 63 62 60 60 59 56 60 63 60 62 61 61 61 59 58 53 53 57 54 53 53 62 60 59 61 66 62 61 63 63 63 64 64 65 65 64 66 64 64 63 63 62 63 63 63 64 64 63 63 63 64 63 63 63 61 60 59 58 58 56 56 55 54 54 54 53 53 53 53 53 52 52 51 51 52 51 51 51 51 50 50 50 50
64 64 64 63 61 60 59 59 60 61 63 64 63 60 59 60 63 57 55 53 54 51 53 59 61 62 64 66 65 64 62 64 63 64 64 64 64 64 65 64 63 63 63 62 62 62 63 62 61 61 61 61 61 60 61 61 61 60 58 57 56 56 55 54 53 53 53 52 53 52 51 51 50 50 51 51 51 50 50 51 51 50 50 50 51
65 66 65 64 63 63 62 62 62 61 62 63 62 62 60 55 63 63 59 55 51 50 52 56 62 62 65 63 65 65 63 63 64 63 63 63 64 64 63 64 64 64 64 62 61 60 60 60 60 59 59 59 58 58 57 57 57 57 58 57 56 55 54 54 53 52 52 51 52 51 51 50 51 51 51 50 50 50 51 52 51 50 50 51 52
66 66 65 64 64 64 64 64 63 63 62 61 60 60 60 60 59 62 60 58 55 53 53 55 54 58 62 63 67 65 64 64 63 64 63 63 63 64 64 63 63 64 64 62 60 59 59 59 59 58 58 56 56 55 55 55 56 56 56 56 55 54 53 53 52 52 51 51 50 51 50 51 50 50 50 51 50 51 52 52 51 51 52 52 52
65 66 66 65 65 65 64 64 64 64 63 62 61 60 61 61 60 57 59 57 56 55 53 57 56 57 61 63 65 64 64 64 64 63 63 63 63 62 64 62 62 63 61 61 60 58 58 57 55 55 55 56 55 54 54 55 56 56 55 55 55 54 52 52 51 50 51 50 50 51 50 50 51 50 51 50 51 51 51 50 50 50 50 52 52
65 64 66 67 67 66 65 66 65 64 64 62 61 61 62 62 61 59 59 57 56 55 54 57 61 61 64 64 64 64 63 64 63 64 63 64 63 63 61 61 62 61 62 61 61 59 59 58 57 55 56 56 56 55 54 54 53 54 55 54 53 53 52 52 51 50 50 50 50 50 49 49 49 50 50 50 50 50 52 52 51 51 53 53 52
65 65 66 66 66 66 66 66 66 64 64 63 63 62 63 63 62 62 60 59 57 55 56 57 59 61 64 63 63 63 63 62 63 63 64 64 64 63 63 62 60 60 60 60 58 56 57 58 56 55 55 55 54 55 54 53 52 51 53 54 53 53 51 50 50 49 49 50 50 50 48 51 52 51 50 51 49 51 51 51 51 52 53 52 51
63 63 65 64 63 64 65 65 65 65 65 64 64 64 64 63 63 62 60 59 59 58 57 55 56 59 60 60 61 61 62 63 63 63 64 64 63 64 63 62 62 59 57 55 52 51 51 54 57 56 55 55 54 53 52 51 51 51 52 52 52 51 51 50 50 49 50 50 49 48 52 52 51 50 53 51 49 51 51 50 51 52 53 52 53
54 53 56 59 63 63 63 65 66 66 65 64 64 64 64 63 63 62 60 59 59 59 58 57 53 57 60 59 57 56 60 61 61 62 62 63 63 62 62 62 60 58 58 56 52 50 48 51 51 53 55 55 55 52 51 52 51 51 51 51 51 51 51 50 50 49 49 48 49 53 52 50 50 51 52 50 51 50 50 51 52 53 53 52 54
51 50 51 55 58 60 60 61 61 63 64 65 64 62 61 63 64 63 62 59 59 58 59 59 57 56 54 54 58 57 54 56 59 61 63 61 62 61 59 60 59 58 58 52 49 52 50 49 49 51 51 48 47 50 53 51 52 52 51 51 50 50 50 50 50 50 48 51 52 52 50 49 51 51 51 50 51 51 51 52 52 53 53 54 53
50 47 47 51 55 56 56 57 58 59 61 61 61 62 62 61 61 62 62 61 59 60 59 59 58 59 56 53 54 54 54 57 57 58 61 60 59 61 62 57 55 54 55 50 51 50 48 47 48 48 51 50 47 46 50 52 51 54 50 50 50 49 49 50 49 49 49 52 51 50 48 50 51 50 51 50 50 51 51 52 52 53 53 54 54
50 47 46 51 54 53 54 54 55 55 57 57 57 59 60 63 61 61 63 59 60 59 59 60 59 59 59 58 56 54 56 57 56 53 59 60 59 60 60 59 57 54 54 51 47 48 50 47 47 48 48 47 48 47 47 47 52 51 51 49 49 49 49 48 48 47 50 52 51 49 48 49 50 50 50 51 54 54 53 54 53 53 53 53 54
51 46 46 49 52 53 53 54 53 54 56 56 56 56 57 59 62 64 64 63 61 59 59 59 59 58 57 56 57 57 58 56 54 55 54 57 59 59 59 59 53 54 53 48 48 51 47 46 44 42 46 47 48 49 49 49 50 50 50 50 49 49 48 47 47 49 49 50 48 48 49 51 50 51 51 51 50 51 51 51 52 53 53 53 53
46 44 46 48 50 52 52 53 53 52 55 54 54 54 55 56 60 61 60 62 62 60 59 59 57 57 57 57 57 56 54 58 58 55 53 53 55 58 58 60 57 55 52 48 46 46 46 44 41 41 45 41 45 45 47 48 49 49 50 49 49 48 47 47 47 48 49 46 48 48 49 50 50 49 51 51 49 48 48 49 52 54 54 53 53
48 47 48 49 51 51 51 50 52 52 54 53 53 53 54 54 58 58 59 60 60 61 60 60 59 57 57 57 56 55 57 59 59 58 56 53 53 54 53 55 57 53 54 52 47 46 46 46 41 38 45 42 39 43 46 47 48 48 49 49 48 47 47 47 47 47 47 47 47 47 48 49 49 48 49 49 51 50 50 51 54 54 53 54 53
51 50 51 49 49 50 50 50 52 52 54 51 52 52 53 54 56 59 59 58 59 60 60 61 59 59 58 58 57 56 55 58 58 57 58 57 53 53 52 51 50 52 54 55 45 43 42 44 41 38 38 38 38 39 42 46 48 49 48 48 47 47 47 48 48 47 47 47 47 47 47 47 48 48 48 50 50 49 48 50 53 52 53 53 53
52 54 52 49 52 53 52 51 52 53 53 51 52 52 54 56 57 58 58 57 58 59 59 60 60 59 59 59 59 56 54 57 56 57 56 54 55 54 53 53 50 50 51 49 45 44 42 45 43 40 38 37 37 38 39 42 48 50 51 49 48 48 48 48 47 47 48 48 48 48 48 47 47 48 50 50 50 48 51 53 53 53 52 53 54
51 54 52 51 53 53 53 53 52 52 52 52 53 54 55 57 57 58 58 58 59 59 59 59 59 60 59 58 58 59 57 55 59 58 57 56 55 54 53 52 49 48 51 53 44 42 41 41 42 41 38 36 36 40 43 46 48 50 49 49 48 48 48 48 48 48 48 48 48 48 47 48 49 50 49 50 48 53 53 52 52 52 52 52 53
51 51 51 51 53 52 52 53 51 52 51 51 52 53 54 55 55 55 58 58 59 59 59 58 59 59 59 60 59 59 58 58 59 57 58 58 57 55 55 52 49 48 48 48 45 44 42 42 42 40 35 35 35 37 39 43 46 47 48 49 47 45 44 44 45 45 46 46 47 47 47 48 48 49 49 47 52 54 52 52 52 52 52 52 53
49 50 50 50 52 51 51 53 50 51 51 50 51 53 54 54 55 55 56 57 58 58 58 58 59 59 60 59 59 59 59 58 59 60 57 57 56 56 55 54 50 49 46 45 46 42 41 42 41 41 38 34 36 39 39 38 40 39 40 45 45 45 43 42 41 41 42 44 45 46 46 47 48 48 48 50 53 51 51 51 52 52 52 52 52
49 51 51 50 51 51 51 52 50 51 51 50 51 51 52 53 54 55 56 57 57 58 58 58 57 58 58 58 57 59 59 59 61 60 60 58 57 57 54 52 49 46 46 46 46 41 40 38 38 39 37 39 37 36 36 36 40 41 40 40 43 44 44 44 40 39 40 40 42 43 46 46 47 48 49 51 51 51 52 52 52 52 52 52 51
50 49 50 50 50 51 51 51 50 50 50 49 50 50 51 52 52 53 55 56 56 57 57 57 57 58 58 58 57 58 60 59 60 60 59 59 59 58 57 53 45 45 47 47 45 43 40 38 38 40 40 39 37 37 40 39 39 42 42 39 40 42 44 43 41 39 39 40 40 42 45 45 46 48 49 50 51 51 52 52 52 52 51 51 50
49 49 49 49 50 49 49 50 51 50 50 49 49 49 50 51 52 52 53 54 55 56 58 57 57 58 57 57 57 56 58 60 60 61 60 60 58 59 57 52 48 46 46 46 45 41 38 39 40 41 41 38 37 39 36 37 41 42 41 40 40 40 44 43 43 39 38 38 39 40 44 45 45 48 49 50 50 51 51 52 51 51 50 50 49
47 48 48 48 49 50 48 48 51 51 50 48 48 48 49 50 51 52 52 53 53 54 56 57 57 57 57 55 56 57 57 58 58 61 60 59 59 59 59 59 55 48 47 45 45 42 42 46 44 43 42 38 37 37 35 38 46 44 43 37 40 40 43 43 41 41 41 40 40 39 42 45 45 48 49 50 50 51 51 51 51 50 49 48 47
47 47 46 46 47 46 48 47 48 50 49 48 48 48 49 48 49 50 51 51 52 52 55 55 57 57 55 55 58 59 58 57 57 61 60 60 59 59 59 60 57 57 54 49 42 49 45 43 45 44 41 38 37 37 37 38 46 46 45 40 39 46 46 44 45 43 43 43 41 41 39 43 44 47 48 49 49 50 50 50 49 48 47 46 46
46 46 44 44 44 45 45 47 49 50 48 47 47 47 48 48 48 49 50 50 51 51 53 56 57 56 54 56 56 56 57 56 57 60 59 60 60 59 59 60 59 59 57 54 45 44 50 48 46 42 41 41 39 38 35 39 47 48 46 41 42 50 40 41 47 46 45 46 46 45 42 42 42 45 47 47 47 48 49 48 47 46 46 46 45
45 44 43 42 43 45 44 50 49 48 46 46 46 47 47 46 47 48 49 49 50 50 52 54 55 56 56 55 54 56 57 55 56 59 59 59 59 59 59 58 58 58 56 54 46 47 50 51 46 43 42 45 42 37 37 39 41 43 47 42 42 41 38 41 37 43 45 46 47 46 45 43 42 43 45 46 45 45 46 45 44 45 45 45 45
45 44 42 44 44 45 44 50 47 46 45 45 46 45 46 46 46 48 48 48 50 50 52 54 55 55 56 55 55 55 57 55 56 57 58 58 58 58 58 58 58 57 57 53 47 47 48 47 46 45 45 44 40 39 39 40 41 42 42 43 45 46 43 42 36 38 45 45 48 46 45 43 42 43 43 44 44 44 44 43 43 44 44 45 45
45 45 44 44 44 44 44 49 46 45 44 44 45 44 45 45 46 46 47 48 50 50 51 54 52 55 55 54 54 55 55 55 56 56 58 58 58 58 58 59 57 58 57 51 49 48 46 47 46 43 44 44 45 39 40 42 42 44 42 43 43 47 45 41 39 39 42 45 49 46 46 45 41 42 44 44 44 44 44 43 43 43 43 43 43
44 46 46 44 45 44 46 48 45 44 44 44 43 43 43 44 44 44 46 47 50 51 52 54 52 54 54 54 54 54 55 55 55 56 57 57 58 58 58 58 58 57 55 52 51 49 47 45 44 43 47 46 47 41 43 45 43 42 43 45 43 44 44 46 39 37 41 46 48 47 46 44 43 42 43 44 45 44 44 43 43 43 43 43 43
45 46 45 44 45 43 46 47 45 44 43 42 42 42 42 43 43 44 45 47 50 52 52 53 54 54 52 50 52 53 54 55 55 55 56 55 57 58 58 59 57 57 57 55 52 52 48 46 46 46 47 46 47 43 41 42 46 43 43 44 44 44 44 45 45 41 45 47 48 47 46 45 43 43 43 45 44 44 44 43 43 43 43 43 43
45 44 44 43 44 42 44 48 45 44 43 43 42 41 41 42 42 44 45 47 50 52 53 53 53 54 51 51 54 54 55 55 55 55 55 55 55 56 57 56 56 57 56 54 53 52 50 48 47 46 48 48 48 41 42 43 44 44 40 41 42 44 44 45 47 45 44 46 47 46 45 43 44 43 44 45 44 44 44 43 43 43 43 43 43
44 42 42 41 43 43 43 48 45 44 42 42 42 41 41 41 42 44 47 48 51 52 53 53 53 52 53 51 53 54 55 54 54 53 53 53 54 55 56 56 57 56 55 53 51 52 50 49 47 47 48 50 48 43 38 41 43 44 45 47 47 47 47 47 44 42 45 45 48 48 45 41 41 41 44 45 44 44 44 43 44 44 43 43 43
43 42 41 41 42 43 43 47 45 44 42 42 41 40 40 41 41 43 45 49 52 52 53 53 53 53 52 53 53 53 53 52 52 52 52 48 49 51 55 56 56 55 55 55 54 52 51 50 48 47 48 48 47 48 41 44 42 43 46 44 46 45 50 52 43 43 44 47 46 45 47 44 45 45 47 46 45 44 44 43 44 44 44 43 43
43 42 41 42 43 42 41 44 45 43 43 42 41 40 40 40 41 43 45 50 51 52 53 53 53 53 52 51 53 54 53 53 52 52 52 52 49 49 52 57 56 56 56 56 55 54 51 51 49 49 46 47 47 46 43 46 45 43 44 48 46 50 48 47 47 43 41 40 44 40 42 42 41 43 44 42 42 42 42 43 43 44 43 43 43
41 42 41 42 42 41 41 43 45 44 42 41 42 41 41 41 41 43 45 50 51 52 52 52 53 53 52 52 52 54 55 54 51 48 47 49 52 53 53 55 56 56 56 56 55 55 52 49 48 47 46 45 46 48 47 48 48 47 47 50 45 48 48 46 45 44 46 46 47 42 41 41 42 40 41 40 40 41 41 41 42 42 43 43 43
42 41 41 40 42 43 43 44 45 44 42 40 40 38 39 40 42 42 46 50 51 51 51 51 52 53 53 52 52 53 54 51 49 47 46 47 47 49 51 54 57 56 55 56 55 54 53 52 48 47 45 48 46 45 48 48 50 48 50 47 49 48 46 46 45 45 44 46 46 48 42 43 42 41 41 40 40 41 41 42 43 43 43 43 43
41 42 41 41 43 44 44 43 45 43 42 41 38 38 38 38 41 43 46 48 51 50 51 51 52 52 52 53 52 52 49 45 43 43 49 48 47 47 47 48 49 49 49 55 54 53 51 53 50 49 49 46 45 48 48 47 47 50 48 46 46 44 45 44 44 42 45 47 47 47 45 44 42 43 42 40 41 41 41 42 43 43 43 43 43
40 40 41 41 43 43 43 42 44 43 41 40 38 38 38 38 38 43 45 47 50 51 51 50 51 52 52 53 52 52 50 48 42 38 40 42 52 50 50 50 48 45 44 46 47 54 55 55 52 52 52 46 46 48 49 49 48 46 49 47 46 47 47 45 43 43 44 47 46 47 43 41 40 43 43 43 42 42 41 42 43 43 43 43 43
40 40 41 42 43 43 43 42 43 44 41 40 37 38 38 37 38 41 44 46 48 50 51 51 51 52 52 52 51 50 50 41 38 38 39 41 44 50 55 55 55 56 52 49 49 51 54 55 54 52 52 52 50 47 49 48 48 46 45 46 47 48 48 46 45 46 47 49 46 45 48 40 38 42 43 42 42 42 42 42 43 43 43 43 43
39 39 40 41 42 42 42 43 42 43 42 38 37 37 37 37 38 41 42 45 46 48 51 51 51 52 51 48 48 48 45 41 44 42 41 43 46 49 52 53 54 51 49 48 48 52 56 56 53 51 50 53 54 53 50 50 48 49 48 46 46 48 47 47 46 45 42 42 45 45 44 37 39 40 43 42 41 41 42 43 44 43 43 43 43
40 41 40 41 40 41 42 42 42 41 41 38 37 37 37 37 38 41 41 42 44 46 48 51 50 51 51 48 46 45 45 44 45 39 41 45 46 48 52 53 54 52 48 47 40 42 47 48 50 49 47 46 45 47 50 53 52 54 50 47 48 47 46 46 44 46 44 43 46 43 45 36 40 39 40 42 42 42 42 43 44 44 44 44 43
40 40 39 40 41 41 41 42 41 41 41 39 37 37 37 37 38 39 40 41 42 44 46 50 50 50 50 51 46 43 44 44 43 37 37 46 48 46 48 50 53 52 51 48 43 41 40 40 40 40 40 41 41 41 40 40 45 51 51 50 46 47 46 43 44 45 42 43 43 47 47 40 38 39 39 41 42 42 43 43 45 45 44 44 44
39 39 39 39 40 41 41 41 41 40 40 41 37 37 37 37 39 38 38 40 41 42 43 49 48 47 48 52 50 44 43 43 39 37 37 43 46 42 42 40 47 52 52 53 52 49 42 41 41 40 40 41 43 44 42 41 42 50 49 48 47 44 45 46 44 41 42 42 45 49 46 43 39 39 39 40 42 44 44 45 46 46 45 45 45
39 39 39 38 39 39 40 40 42 40 39 40 38 37 37 37 37 37 37 38 39 40 42 48 46 45 46 47 48 46 43 41 38 37 37 42 43 41 38 38 36 38 37 51 53 53 52 52 52 51 49 51 55 54 50 45 43 54 51 50 46 46 45 46 45 45 37 39 38 46 47 43 43 38 39 39 39 43 45 46 45 46 46 45 45